When you browse on this site, cookies collect data to enhance your experience and personalize the content and advertising you see.
Visit our Privacy Policy to learn more. By continuing to use the site, you agree to this use of cookies and data.
  • In Germany
  • List of Countries
  • For 7 days
  • Water Temperature
  • Satellite Maps
  • Weather Map
  • Weather Widgets
  • user-avatar
    Login

    Hourly Weather Canberra

    Today, 23 March, Saturday

    Time Temperature Precipitation Wind Pressure Humidity
    00:00 +16°C° 0 mm 1 mps 709 mmHg 94%
    01:00 +16°C° 0 mm 1 mps 709 mmHg 95%
    02:00 +16°C° 0 mm 1 mps 709 mmHg 95%
    03:00 +15°C° 0 mm 1 mps 708 mmHg 95%
    04:00 +15°C° 0 mm 1 mps 708 mmHg 97%
    05:00 +15°C° 0 mm 1 mps 708 mmHg 96%
    06:00 +16°C° 0 mm 1 mps 708 mmHg 94%
    07:00 +15°C° 0 mm 0 mps 708 mmHg 93%
    08:00 +19°C° 0 mm 1 mps 708 mmHg 81%
    09:00 +22°C° 0 mm 1 mps 708 mmHg 70%
    10:00 +23°C° 0 mm 1 mps 709 mmHg 62%
    11:00 +25°C° 0 mm 1 mps 708 mmHg 54%
    12:00 +26°C° 0 mm 2 mps 708 mmHg 47%
    13:00 +28°C° 0 mm 2 mps 708 mmHg 40%
    14:00 +27°C° 0 mm 2 mps 707 mmHg 42%
    15:00 +27°C° 0 mm 2 mps 707 mmHg 44%
    16:00 +27°C° 0 mm 2 mps 706 mmHg 46%
    17:00 +25°C° 0 mm 2 mps 706 mmHg 52%
    18:00 +23°C° 0 mm 1 mps 706 mmHg 58%
    19:00 +21°C° 0 mm 1 mps 705 mmHg 63%
    20:00 +21°C° 0 mm 1 mps 706 mmHg 65%
    21:00 +18°C° 0 mm 0 mps 706 mmHg 67%
    22:00 +18°C° 0 mm 0 mps 706 mmHg 69%
    23:00 +18°C° 0 mm 0 mps 706 mmHg 69%

    Tomorrow, 24 March, Sunday

    Time Temperature Precipitation Wind Pressure Humidity
    00:00 +18°C° 0 mm 0 mps 706 mmHg 68%
    01:00 +18°C° 0 mm 0 mps 706 mmHg 68%
    02:00 +18°C° 0 mm 0 mps 706 mmHg 68%
    03:00 +20°C° 0 mm 1 mps 706 mmHg 67%
    04:00 +20°C° 0 mm 1 mps 706 mmHg 67%
    05:00 +20°C° 0 mm 1 mps 706 mmHg 67%
    06:00 +20°C° 0 mm 1 mps 707 mmHg 67%
    07:00 +20°C° 0 mm 1 mps 707 mmHg 67%
    08:00 +22°C° 0 mm 1 mps 707 mmHg 60%
    09:00 +24°C° 0 mm 2 mps 708 mmHg 54%
    10:00 +25°C° 0 mm 2 mps 708 mmHg 47%
    11:00 +26°C° 0 mm 3 mps 708 mmHg 45%
    12:00 +27°C° 0 mm 4 mps 708 mmHg 43%
    13:00 +28°C° 0 mm 5 mps 707 mmHg 42%
    14:00 +26°C° 0.1 mm 5 mps 707 mmHg 49%
    15:00 +23°C° 0.1 mm 5 mps 707 mmHg 56%
    16:00 +22°C° 0.1 mm 6 mps 706 mmHg 63%
    17:00 +21°C° 0 mm 5 mps 706 mmHg 66%
    18:00 +20°C° 0 mm 5 mps 707 mmHg 70%
    19:00 +20°C° 0 mm 4 mps 707 mmHg 74%
    20:00 +20°C° 0 mm 5 mps 707 mmHg 74%
    21:00 +20°C° 0 mm 5 mps 706 mmHg 75%
    22:00 +19°C° 0 mm 5 mps 706 mmHg 75%
    23:00 +19°C° 0.5 mm 6 mps 706 mmHg 77%

    Day after tomorrow, 25 March, Monday

    Time Temperature Precipitation Wind Pressure Humidity
    00:00 +18°C° 0.5 mm 7 mps 706 mmHg 79%
    01:00 +18°C° 0.5 mm 7 mps 705 mmHg 80%
    02:00 +18°C° 0.6 mm 7 mps 705 mmHg 82%
    03:00 +19°C° 0.6 mm 6 mps 705 mmHg 83%
    04:00 +19°C° 0.6 mm 5 mps 704 mmHg 84%
    05:00 +19°C° 0 mm 5 mps 704 mmHg 85%
    06:00 +19°C° 0 mm 5 mps 704 mmHg 85%
    07:00 +19°C° 0 mm 5 mps 704 mmHg 85%
    08:00 +20°C° 0 mm 6 mps 704 mmHg 81%
    09:00 +21°C° 0 mm 7 mps 704 mmHg 77%
    10:00 +22°C° 0 mm 7 mps 704 mmHg 72%
    11:00 +22°C° 0.3 mm 7 mps 704 mmHg 74%
    12:00 +21°C° 0.3 mm 8 mps 704 mmHg 76%
    13:00 +21°C° 0.3 mm 8 mps 704 mmHg 77%
    14:00 +20°C° 0.4 mm 7 mps 703 mmHg 77%
    15:00 +18°C° 0.4 mm 7 mps 703 mmHg 76%
    16:00 +17°C° 0.4 mm 7 mps 703 mmHg 76%
    17:00 +16°C° 0 mm 7 mps 704 mmHg 71%
    18:00 +16°C° 0 mm 6 mps 705 mmHg 66%
    19:00 +15°C° 0 mm 6 mps 706 mmHg 61%
    20:00 +14°C° 0 mm 4 mps 706 mmHg 62%
    21:00 +13°C° 0 mm 3 mps 707 mmHg 64%
    22:00 +12°C° 0 mm 2 mps 708 mmHg 65%
    23:00 +10°C° 0 mm 2 mps 708 mmHg 65%

    26 March, Tuesday

    Time Temperature Precipitation Wind Pressure Humidity
    00:00 +10°C° 0 mm 2 mps 708 mmHg 64%
    01:00 +9°C° 0 mm 2 mps 709 mmHg 63%
    02:00 +8°C° 0 mm 2 mps 709 mmHg 63%
    03:00 +8°C° 0 mm 2 mps 709 mmHg 62%
    04:00 +7°C° 0 mm 2 mps 709 mmHg 62%
    05:00 +7°C° 0 mm 2 mps 710 mmHg 62%
    06:00 +8°C° 0 mm 1 mps 711 mmHg 61%
    07:00 +8°C° 0 mm 1 mps 711 mmHg 60%
    08:00 +11°C° 0 mm 1 mps 712 mmHg 51%
    09:00 +13°C° 0 mm 2 mps 712 mmHg 41%
    10:00 +16°C° 0 mm 2 mps 713 mmHg 31%
    11:00 +18°C° 0 mm 2 mps 713 mmHg 28%
    12:00 +20°C° 0 mm 2 mps 713 mmHg 26%
    13:00 +21°C° 0 mm 2 mps 713 mmHg 23%
    14:00 +23°C° 0 mm 2 mps 713 mmHg 23%
    15:00 +23°C° 0 mm 1 mps 712 mmHg 24%
    16:00 +23°C° 0 mm 1 mps 712 mmHg 24%
    17:00 +20°C° 0 mm 1 mps 713 mmHg 33%
    18:00 +16°C° 0 mm 2 mps 713 mmHg 41%
    19:00 +14°C° 0 mm 2 mps 713 mmHg 50%
    20:00 +13°C° 0 mm 2 mps 714 mmHg 56%
    21:00 +12°C° 0 mm 2 mps 715 mmHg 62%
    22:00 +10°C° 0 mm 2 mps 715 mmHg 67%
    23:00 +9°C° 0 mm 2 mps 715 mmHg 69%

    27 March, Wednesday

    Time Temperature Precipitation Wind Pressure Humidity
    00:00 +9°C° 0 mm 2 mps 715 mmHg 71%
    01:00 +10°C° 0 mm 1 mps 715 mmHg 73%
    02:00 +9°C° 0 mm 1 mps 715 mmHg 75%
    03:00 +9°C° 0 mm 1 mps 715 mmHg 77%
    04:00 +9°C° 0 mm 1 mps 715 mmHg 79%
    05:00 +9°C° 0 mm 1 mps 715 mmHg 78%
    06:00 +10°C° 0 mm 1 mps 716 mmHg 78%
    07:00 +10°C° 0 mm 1 mps 716 mmHg 77%
    08:00 +13°C° 0 mm 2 mps 717 mmHg 68%
    09:00 +15°C° 0 mm 2 mps 717 mmHg 59%
    10:00 +18°C° 0 mm 3 mps 717 mmHg 50%
    11:00 +19°C° 0 mm 3 mps 717 mmHg 45%
    12:00 +21°C° 0 mm 3 mps 716 mmHg 40%
    13:00 +22°C° 0 mm 3 mps 716 mmHg 36%
    14:00 +22°C° 0 mm 3 mps 716 mmHg 37%
    15:00 +22°C° 0 mm 3 mps 715 mmHg 39%
    16:00 +21°C° 0 mm 3 mps 715 mmHg 41%
    17:00 +19°C° 0 mm 3 mps 715 mmHg 53%
    18:00 +17°C° 0 mm 3 mps 715 mmHg 65%
    19:00 +14°C° 0 mm 3 mps 715 mmHg 77%
    20:00 +13°C° 0 mm 3 mps 715 mmHg 83%
    21:00 +14°C° 0 mm 2 mps 716 mmHg 89%
    22:00 +13°C° 0 mm 2 mps 716 mmHg 95%
    23:00 +13°C° 0 mm 2 mps 715 mmHg 94%

    28 March, Thursday

    Time Temperature Precipitation Wind Pressure Humidity
    00:00 +14°C° 0 mm 1 mps 715 mmHg 92%
    01:00 +14°C° 0 mm 1 mps 715 mmHg 90%
    02:00 +14°C° 0 mm 1 mps 715 mmHg 90%
    03:00 +14°C° 0 mm 1 mps 715 mmHg 90%
    04:00 +14°C° 0 mm 1 mps 714 mmHg 91%
    05:00 +14°C° 0 mm 1 mps 714 mmHg 92%
    06:00 +14°C° 0 mm 1 mps 715 mmHg 93%
    07:00 +14°C° 0 mm 1 mps 715 mmHg 94%
    08:00 +16°C° 0 mm 1 mps 715 mmHg 83%
    09:00 +19°C° 0 mm 1 mps 715 mmHg 72%
    10:00 +21°C° 0 mm 2 mps 715 mmHg 61%
    11:00 +23°C° 0 mm 2 mps 715 mmHg 54%
    12:00 +24°C° 0 mm 2 mps 714 mmHg 47%
    13:00 +25°C° 0 mm 2 mps 714 mmHg 40%
    14:00 +25°C° 0 mm 2 mps 713 mmHg 39%
    15:00 +25°C° 0 mm 2 mps 712 mmHg 38%
    16:00 +25°C° 0 mm 2 mps 712 mmHg 37%
    17:00 +24°C° 0 mm 2 mps 712 mmHg 43%
    18:00 +22°C° 0 mm 1 mps 712 mmHg 50%
    19:00 +20°C° 0 mm 1 mps 712 mmHg 56%
    20:00 +19°C° 0 mm 1 mps 712 mmHg 67%
    21:00 +18°C° 0 mm 1 mps 712 mmHg 77%
    22:00 +16°C° 0 mm 1 mps 712 mmHg 88%
    23:00 +16°C° 0 mm 1 mps 711 mmHg 90%
    Show more